FW5866 Weather Reports


Display with metric or nautical units.
time (UTC)temp
F
wind
direction
speed
MPH
gust
MPH
rain 1hr
in
rain 24hr
in
rain mn
in
humidity
%
barometer
mb
20260507011553 79 178 5.0 10.0 0.00 0.00 0.00 92 1010.9
20260507010048 79 162 3.0 9.0 0.00 0.00 0.00 91 1011.1
20260507004549 79 163 3.0 10.0 0.00 0.00 0.00 91 1011.1
20260507003046 80 176 6.0 12.0 0.00 0.00 0.00 91 1010.9
20260507001547 80 155 5.0 14.0 0.00 0.00 0.00 91 1010.8
20260507000053 80 158 4.0 13.0 0.00 0.00 0.00 90 1010.9
20260506234554 80 173 4.0 11.0 0.00 0.00 0.00 90 1010.7
20260506233049 80 157 3.0 10.0 0.00 0.00 0.00 90 1010.9
20260506231546 80 174 4.0 12.0 0.00 0.00 0.00 90 1010.8
20260506230049 81 148 4.0 12.0 0.00 0.00 0.00 90 1010.9
20260506224600 81 155 4.0 9.0 0.00 0.00 0.00 90 1010.8
20260506223048 81 161 5.0 13.0 0.00 0.00 0.00 90 1010.7
20260506221548 81 158 4.0 13.0 0.00 0.00 0.00 91 1010.8
20260506220049 80 144 4.0 12.0 0.00 0.00 0.00 91 1011.0
20260506214605 80 157 3.0 11.0 0.00 0.00 0.00 90 1011.0
20260506213048 81 0 4.0 8.0 0.00 0.00 0.00 90 1011.3
20260506211548 81 123 3.0 9.0 0.00 0.00 0.00 89 1011.5
20260506210055 81 157 3.0 11.0 0.00 0.00 0.00 89 1011.5
20260506204559 82 156 4.0 13.0 0.00 0.00 0.00 89 1011.3
20260506203052 82 159 5.0 12.0 0.00 0.00 0.00 89 1011.5
20260506201549 83 155 3.0 11.0 0.00 0.00 0.00 89 1011.6
20260506200044 83 0 0.0 7.0 0.00 0.00 0.00 88 1011.6
20260506194559 83 0 0.0 4.0 0.00 0.00 0.00 88 1012.0
20260506193052 83 0 0.0 3.0 0.00 0.00 0.00 88 1012.1
20260506191551 83 0 0.0 1.0 0.00 0.00 0.00 88 1012.6
20260506190049 84 0 0.0 6.0 0.00 0.00 0.00 88 1012.9
20260506184550 83 0 3.0 8.0 0.00 0.00 0.00 89 1013.1
20260506183052 83 161 4.0 11.0 0.00 0.00 0.00 88 1013.3
20260506181548 83 167 6.0 13.0 0.00 0.00 0.00 88 1013.4
20260506180050 82 171 4.0 11.0 0.00 0.00 0.00 89 1013.4
20260506174549 82 162 4.0 9.0 0.00 0.00 0.00 89 1013.7
20260506173051 82 153 6.0 11.0 0.00 0.00 0.00 89 1013.7
20260506171555 82 155 4.0 12.0 0.00 0.00 0.00 90 1013.8
20260506170048 80 130 3.0 10.0 0.00 0.00 0.00 91 1013.9
20260506164547 80 162 2.0 7.0 0.00 0.00 0.00 91 1014.2
20260506163049 80 168 4.0 11.0 0.00 0.00 0.00 91 1014.1
20260506161556 80 163 4.0 8.0 0.00 0.00 0.00 92 1014.0
20260506160048 79 157 1.0 5.0 0.00 0.00 0.00 93 1014.1
20260506154608 78 188 4.0 7.0 0.00 0.00 0.00 93 1014.0
20260506153048 78 153 3.0 9.0 0.00 0.00 0.00 92 1013.8
20260506151541 78 164 5.0 11.0 0.00 0.00 0.00 92 1013.6
20260506150045 78 163 4.0 11.0 0.00 0.00 0.00 93 1013.5
20260506144558 77 0 2.0 6.0 0.00 0.00 0.00 93 1013.4
20260506143050 77 156 4.0 9.0 0.00 0.00 0.00 93 1013.6
20260506141543 77 159 2.0 8.0 0.00 0.00 0.00 93 1013.6
20260506140056 77 165 4.0 8.0 0.00 0.00 0.00 93 1013.5
20260506134549 77 157 4.0 8.0 0.00 0.00 0.00 94 1013.4
20260506133052 77 166 5.0 11.0 0.00 0.00 0.00 94 1013.2
20260506131552 77 162 5.0 8.0 0.00 0.00 0.00 94 1013.1
20260506130045 76 153 4.0 9.0 0.00 0.00 0.00 94 1012.8
20260506124549 76 153 4.0 9.0 0.00 0.00 0.00 94 1012.5
20260506123045 76 150 4.0 10.0 0.00 0.00 0.00 94 1012.6
20260506121551 75 157 4.0 9.0 0.00 0.00 0.00 94 1012.4
20260506120048 75 159 3.0 7.0 0.00 0.00 0.00 94 1012.2
20260506114546 75 167 2.0 7.0 0.00 0.00 0.00 94 1012.1
20260506113051 75 98 2.0 7.0 0.00 0.00 0.00 94 1011.9
20260506111552 74 160 1.0 5.0 0.00 0.00 0.00 93 1011.7
20260506110048 74 166 1.0 5.0 0.00 0.00 0.00 93 1011.7
20260506104556 74 140 0.0 4.0 0.00 0.00 0.00 93 1011.7
20260506103047 74 0 0.0 2.0 0.00 0.00 0.00 93 1011.9
20260506101549 74 0 0.0 1.0 0.00 0.00 0.00 93 1012.0
20260506100053 74 0 0.0 4.0 0.00 0.00 0.00 93 1012.0
20260506094546 74 0 0.0 0.0 0.00 0.00 0.00 93 1012.1
20260506093048 74 0 0.0 0.0 0.00 0.00 0.00 93 1012.0
20260506091551 74 0 0.0 0.0 0.00 0.00 0.00 93 1012.0
20260506090051 74 0 0.0 0.0 0.00 0.00 0.00 92 1012.1
20260506084554 74 0 0.0 0.0 0.00 0.00 0.00 92 1012.0
20260506083053 74 0 0.0 0.0 0.00 0.00 0.00 92 1012.1
20260506081554 74 0 0.0 2.0 0.00 0.00 0.00 93 1012.2
20260506073053 74 156 0.0 2.0 0.00 0.00 0.00 92 1012.5
20260506071551 74 0 0.0 1.0 0.00 0.00 0.00 92 1012.3
20260506061555 74 0 1.0 6.0 0.00 0.00 0.00 92 1012.4
20260506044543 74 0 1.0 6.0 0.00 0.00 0.00 91 1012.5
20260506043049 74 153 2.0 10.0 0.00 0.00 0.00 91 1012.5
20260506041548 74 155 2.0 9.0 0.00 0.00 0.00 91 1012.5
20260506040054 74 163 2.0 9.0 0.00 0.00 0.00 91 1012.4
20260506034546 74 98 2.0 10.0 0.00 0.00 0.00 91 1012.4
20260506033049 75 173 2.0 11.0 0.00 0.00 0.00 91 1012.5
20260506031548 75 155 2.0 10.0 0.00 0.00 0.00 91 1012.5
20260506030046 74 171 2.0 9.0 0.00 0.00 0.00 91 1012.2
20260506024549 74 0 0.0 6.0 0.00 0.00 0.00 90 1012.3
20260506023056 74 0 0.0 0.0 0.00 0.00 0.00 89 1012.0
20260506021555 74 0 0.0 1.0 0.00 0.00 0.00 89 1011.8
20260506020048 74 0 0.0 5.0 0.00 0.00 0.00 89 1011.5
20260506014546 74 0 0.0 1.0 0.00 0.00 0.00 88 1011.5
20260506013049 75 0 0.0 5.0 0.00 0.00 0.00 88 1011.5